Total_Precipitation_Accumulation
0.29 0.41 0.78 0.64 0.45 0.43 0.66 0.51 0.74 0.46 0.22 0.20 0.20 0.20 0.26 0.20 0.13 0.15 0.26 0.29 0.30 0.35 0.42 0.44 0.66 1.16 0.97 1.36 1.60 1.61 1.56 1.70 1.63 1.69 1.62 1.75 1.27 1.23 1.22 1.25 1.10 1.09 1.12 1.29
0.76 0.51 0.55 0.48 0.29 0.43 0.42 0.31 0.35 0.34 0.35 0.32 0.24 0.16 0.19 0.21 0.13 0.10 0.16 0.25 0.28 0.33 0.47 0.49 0.98 1.07 1.41 1.59 1.65 1.74 1.62 1.57 1.75 1.72 2.14 2.37 2.04 1.76 1.41 1.53 1.41 1.42 1.27 1.09
1.25 0.59 0.65 0.64 0.53 0.48 0.63 0.72 0.59 0.53 0.46 0.33 0.49 0.65 0.60 0.28 0.18 0.16 0.15 0.17 0.23 0.39 0.64 0.82 1.08 1.12 2.06 2.10 1.90 1.84 1.68 1.90 1.96 2.48 2.71 2.47 2.26 2.31 2.00 1.64 1.51 1.50 1.45 1.39
1.98 1.40 1.67 1.00 0.48 0.60 0.63 0.73 0.74 0.54 0.33 0.32 0.42 0.51 0.45 0.29 0.20 0.17 0.14 0.17 0.20 0.40 0.54 0.55 0.73 1.14 2.21 2.20 2.01 2.15 1.71 2.04 2.74 3.66 3.46 3.10 2.67 2.42 2.32 1.78 1.56 1.63 1.65 1.65
1.69 1.38 1.14 0.65 0.58 0.77 0.73 0.75 0.56 0.42 0.23 0.11 0.13 0.37 0.53 0.25 0.20 0.22 0.21 0.17 0.18 0.23 0.27 0.32 0.49 0.73 1.10 1.67 2.21 2.36 2.36 2.31 2.79 3.10 2.99 3.26 2.82 2.64 2.15 2.11 1.83 1.86 1.63 1.56
1.60 1.45 0.87 0.62 0.68 0.85 0.49 0.57 0.37 0.30 0.21 0.17 0.08 0.24 0.43 0.39 0.26 0.20 0.18 0.19 0.19 0.19 0.21 0.25 0.27 0.40 0.67 0.93 1.76 2.33 2.07 2.07 2.27 2.59 2.49 2.61 2.52 2.15 1.89 1.71 1.55 1.53 1.51 1.53
1.05 1.55 0.81 0.51 0.42 0.63 0.80 0.70 0.38 0.43 0.31 0.23 0.24 0.27 0.17 0.28 0.33 0.26 0.23 0.23 0.26 0.25 0.38 0.43 0.36 0.55 0.88 0.96 1.38 1.92 1.72 1.91 1.85 2.10 1.97 2.06 2.20 1.99 1.64 1.41 1.38 1.41 1.46 1.31
0.97 1.69 0.89 0.23 0.24 0.59 0.73 0.38 0.39 0.39 0.42 0.31 0.20 0.15 0.16 0.11 0.12 0.23 0.23 0.22 0.28 0.39 0.71 0.85 0.87 0.75 0.76 0.85 0.79 0.94 1.16 1.37 1.33 1.37 1.59 1.59 1.62 1.80 1.68 1.40 1.25 1.08 1.06 1.09
0.81 0.90 0.70 0.54 0.67 0.68 0.48 0.28 0.18 0.22 0.25 0.35 0.26 0.20 0.20 0.17 0.10 0.08 0.10 0.09 0.12 0.26 0.26 0.22 0.32 0.34 0.37 0.32 0.49 0.52 0.56 0.72 0.91 1.13 1.24 1.42 1.50 1.52 1.55 1.44 1.34 1.11 0.99 0.95
0.45 0.31 0.16 0.40 0.38 0.28 0.32 0.29 0.23 0.18 0.17 0.25 0.31 0.27 0.29 0.26 0.21 0.16 0.12 0.13 0.13 0.11 0.06 0.06 0.12 0.20 0.26 0.26 0.33 0.48 0.58 0.63 0.79 1.01 1.21 1.27 1.58 1.65 1.68 1.66 1.57 1.25 1.15 1.08
0.43 0.17 0.15 0.22 0.13 0.20 0.23 0.23 0.21 0.16 0.16 0.19 0.23 0.22 0.30 0.34 0.32 0.28 0.27 0.28 0.27 0.29 0.26 0.14 0.11 0.14 0.20 0.25 0.30 0.40 0.55 0.73 0.92 1.09 1.19 1.32 1.63 1.98 2.15 1.94 2.19 2.33 1.77 1.58
0.35 0.16 0.32 0.23 0.17 0.20 0.19 0.17 0.17 0.18 0.21 0.19 0.24 0.20 0.15 0.15 0.21 0.29 0.38 0.32 0.35 0.44 0.57 0.64 0.57 0.48 0.42 0.46 0.66 0.85 0.94 0.97 1.12 1.29 1.30 1.44 1.65 2.03 2.42 2.53 2.32 2.12 2.17 2.15
0.27 0.22 0.33 0.36 0.28 0.28 0.28 0.24 0.24 0.31 0.30 0.31 0.26 0.25 0.19 0.12 0.09 0.20 0.21 0.27 0.33 0.39 0.43 0.55 0.70 0.88 0.97 0.99 1.04 1.16 1.22 1.29 1.43 1.48 1.41 1.50 1.63 1.60 1.90 2.13 2.18 2.08 1.89 1.86
0.29 0.39 0.46 0.35 0.32 0.28 0.27 0.26 0.25 0.24 0.25 0.26 0.24 0.23 0.24 0.22 0.15 0.15 0.23 0.32 0.38 0.39 0.40 0.46 0.58 0.73 0.91 1.02 1.00 1.06 1.13 1.37 1.38 1.45 1.54 1.65 1.72 1.69 1.69 1.80 2.05 2.21 2.11 2.03
0.45 0.51 0.53 0.45 0.45 0.41 0.36 0.30 0.24 0.21 0.21 0.27 0.35 0.42 0.46 0.46 0.47 0.51 0.49 0.47 0.50 0.55 0.63 0.66 0.64 0.68 0.68 0.75 0.81 0.86 0.91 1.09 1.27 1.41 1.46 1.71 1.72 1.69 1.74 1.85 1.93 2.02 2.21 2.47
0.65 0.53 0.52 0.46 0.41 0.41 0.38 0.43 0.47 0.53 0.54 0.53 0.51 0.51 0.50 0.53 0.58 0.59 0.57 0.56 0.59 0.66 0.72 0.72 0.67 0.67 0.63 0.64 0.65 0.69 0.85 1.16 1.25 1.21 1.28 1.42 1.52 1.59 1.66 1.74 1.86 1.85 1.93 2.27
1.07 0.90 0.72 0.75 0.66 0.68 0.76 0.74 0.74 0.78 0.78 0.71 0.70 0.66 0.60 0.56 0.52 0.51 0.54 0.56 0.54 0.55 0.55 0.56 0.64 0.70 0.70 0.67 0.63 0.75 0.83 0.97 1.13 1.06 1.09 1.24 1.39 1.49 1.51 1.66 1.78 1.87 2.04 2.27
1.11 1.15 1.08 1.23 1.24 1.02 1.01 1.02 1.02 0.99 0.97 0.97 0.86 0.71 0.67 0.67 0.71 0.68 0.66 0.58 0.49 0.48 0.50 0.51 0.61 0.71 0.59 0.60 0.82 0.82 0.77 0.89 0.99 1.04 1.04 1.12 1.33 1.38 1.46 1.62 1.71 1.87 2.02 2.26
0.89 1.00 0.96 0.88 0.97 0.96 0.99 0.98 0.91 0.92 0.91 0.87 0.82 0.86 0.85 0.80 0.72 0.68 0.62 0.49 0.45 0.41 0.57 0.51 0.57 0.48 0.52 0.65 0.84 0.86 0.91 1.02 1.13 1.23 1.17 1.28 1.38 1.25 1.37 1.50 1.64 1.72 1.74 1.82
1.01 0.92 0.81 0.79 0.80 0.79 0.82 0.73 0.69 0.65 0.71 0.66 0.62 0.57 0.56 0.57 0.54 0.47 0.43 0.44 0.55 0.68 0.69 0.58 0.44 0.39 0.58 0.80 0.84 0.92 1.11 1.20 1.27 1.20 1.18 1.27 1.22 1.31 1.40 1.61 1.74 1.77 1.69 1.75
1.28 1.30 1.12 1.07 0.99 0.87 0.84 0.83 0.73 0.67 0.67 0.65 0.62 0.59 0.55 0.54 0.47 0.44 0.40 0.30 0.40 0.50 0.50 0.40 0.37 0.55 0.82 1.14 0.97 0.91 1.11 1.33 1.52 1.50 1.47 1.38 1.33 1.23 1.28 1.45 1.62 1.62 1.71 1.68
0.94 1.03 1.03 0.89 0.67 0.69 0.87 0.86 0.71 0.64 0.57 0.54 0.54 0.49 0.41 0.36 0.32 0.33 0.41 0.62 0.56 0.55 0.63 0.41 0.64 0.90 1.39 1.55 1.29 1.16 1.36 1.48 1.69 1.74 1.55 1.40 1.34 1.34 1.39 1.47 1.63 1.69 1.71 1.65
0.89 0.96 0.89 0.91 0.98 0.98 0.84 0.91 0.83 0.73 0.68 0.68 0.64 0.60 0.64 0.66 0.64 0.73 0.80 0.74 0.73 0.84 0.88 0.83 1.13 1.25 1.48 1.45 1.21 1.27 1.42 1.47 1.58 1.68 1.74 1.73 1.57 1.49 1.53 1.54 1.59 1.58 1.59 1.59
0.76 0.86 0.99 1.06 0.98 0.89 0.85 1.02 0.97 1.02 1.03 0.97 0.94 0.95 0.95 0.97 0.93 1.00 1.32 1.35 1.23 1.20 1.14 1.40 1.47 1.42 1.31 1.23 1.29 1.38 1.46 1.60 1.83 1.90 1.91 1.94 1.77 1.62 1.52 1.49 1.55 1.52 1.54 1.56
0.69 0.72 0.73 0.66 0.62 0.78 0.81 0.83 0.66 0.74 0.75 0.69 0.77 0.88 0.97 1.12 1.44 1.41 1.08 1.13 1.18 1.08 1.05 1.21 1.25 1.17 1.03 1.16 1.32 1.41 1.59 1.84 2.08 2.14 2.08 2.02 1.95 1.84 1.72 1.69 1.71 1.74 1.77 1.71
0.51 0.62 0.66 0.62 0.76 0.75 0.72 0.60 0.59 0.72 0.66 0.57 0.58 0.65 0.73 0.84 0.95 0.89 0.87 1.01 0.99 0.95 0.82 0.91 1.13 1.09 1.07 1.29 1.31 1.33 1.47 1.69 1.78 1.92 1.97 1.98 1.91 1.78 1.76 1.75 1.77 1.77 1.80 1.84
0.45 0.52 0.48 0.33 0.38 0.50 0.59 0.68 0.54 0.62 0.65 0.73 0.70 0.69 0.65 0.63 0.72 0.71 0.67 0.67 0.75 0.80 0.78 0.77 0.89 1.11 1.23 1.31 1.25 1.30 1.40 1.60 1.88 1.93 1.92 1.93 1.86 1.83 1.82 1.78 1.73 1.77 1.79 1.80